Home > Weather > Bari > Past weeks

Flag for Italy Past Weather in Bari, Italy — Yesterday and Last 2 Weeks

Now
75 °F

Sunny.


Feels Like: 78 °F
Forecast: 63 / 84 °F
Wind: 9 mph from East

Location: Bari / Palese Macchie

Current Time: May 27, 2016 at 12:29:29 PM

Latest Report: May 27, 2016 at 11:50 AM


Visibility: 10 mi

Pressure: 30.07 "Hg

Humidity: 47%

Dew Point: 54 °F

Location of BariLocation

Past Weather in Bari — Graph

°F

Bari Temperature Yesterday

Maximum temperature yesterday: 79 °F (at 12:50 PM)
Minimum temperature yesterday: 57 °F (at 3:20 AM)
Average temperature yesterday: 69 °F

High & Low Weather Summary for the Past Weeks

 TemperatureHumidityPressure
High86 °F (May 23, 1:20 PM)100% (May 16, 5:50 AM)32.52 "Hg (May 16, 5:50 AM)
Low46 °F (May 25, 3:20 AM)20% (May 23, 12:20 PM)29.56 "Hg (May 12, 11:20 AM)
Average66 °F64%29.90 "Hg
* Reported May 12 10:20 AM — May 27 10:50 AM, Bari, Weather by CustomWeather, © 2016

Note: Actual official high and low records may vary slightly from our data, if they occured in-between our weather recording intervals... More about our weather records

Advertising

Bari Weather History for the Previous 24 Hours

Scroll right to see more
 ConditionsComfort  
Time TempWeatherWind HumidityBarometerVisibility
10:50 AM
Fri, May 27
77 °FPassing clouds.6 mph47%30.07 "HgN/A
10:20 AM75 °FSunny.6 mph50%30.07 "Hg10 mi
9:50 AM75 °FPassing clouds.6 mph50%30.07 "HgN/A
9:20 AM75 °FPassing clouds.5 mph54%30.07 "HgN/A
8:50 AM73 °FSunny.3 mph53%30.07 "Hg10 mi
8:20 AM72 °FSunny.3 mph61%30.07 "Hg10 mi
7:50 AM70 °FSunny.2 mph69%30.04 "Hg10 mi
7:20 AM66 °FSunny.3 mph73%30.04 "Hg10 mi
6:50 AM64 °FSunny.2 mph68%30.04 "Hg10 mi
6:20 AM61 °FClear.3 mph72%30.01 "Hg10 mi
5:50 AM59 °FClear.3 mph72%30.01 "Hg10 mi
5:20 AM59 °FClear.3 mph77%30.01 "Hg10 mi
4:50 AM61 °FPassing clouds.5 mph72%30.01 "HgN/A
4:20 AM61 °FClear.8 mph72%30.01 "Hg10 mi
3:50 AM61 °FClear.7 mph72%30.01 "Hg10 mi
3:20 AM61 °FClear.8 mph77%30.01 "Hg10 mi
2:50 AM63 °FClear.7 mph68%30.01 "Hg10 mi
2:20 AM63 °FClear.7 mph68%30.01 "Hg10 mi
1:50 AM63 °FClear.7 mph68%30.01 "Hg10 mi
1:20 AM63 °FClear.7 mph68%30.01 "Hg10 mi
12:50 AM63 °FClear.7 mph68%30.01 "Hg10 mi
12:20 AM63 °FClear.6 mph73%30.01 "Hg10 mi
11:50 PM
Thu, May 26
63 °FClear.6 mph73%30.01 "Hg10 mi
11:20 PM64 °FClear.5 mph64%30.01 "Hg10 mi
10:50 PM64 °FClear.5 mph64%30.01 "Hg10 mi
10:20 PM64 °FClear.6 mph64%30.01 "Hg10 mi
9:50 PM64 °FClear.3 mph64%30.01 "Hg10 mi
9:20 PM66 °FClear.2 mph60%30.01 "Hg10 mi
8:50 PM70 °FSunny.2 mph50%30.01 "Hg10 mi
8:20 PM70 °FSunny.3 mph53%30.01 "Hg10 mi
7:50 PM72 °FSunny.2 mph47%30.01 "Hg10 mi
7:20 PM73 °FSunny.3 mph44%30.01 "Hg10 mi
6:50 PM73 °FPassing clouds.6 mph44%30.01 "HgN/A
6:20 PM75 °FSunny.7 mph41%29.98 "Hg10 mi
5:50 PM75 °FSunny.7 mph44%29.98 "Hg10 mi
5:20 PM75 °FPassing clouds.7 mph41%29.98 "HgN/A
4:50 PM77 °FPassing clouds.8 mph34%30.01 "HgN/A
4:20 PM77 °FPassing clouds.7 mph36%30.01 "HgN/A
3:50 PM77 °FPassing clouds.7 mph34%30.01 "HgN/A
3:20 PM77 °FPassing clouds.9 mph32%30.01 "HgN/A
2:50 PM77 °FPassing clouds.7 mph36%30.01 "HgN/A
2:20 PM77 °FPassing clouds.8 mph34%30.01 "HgN/A
1:50 PM77 °FPassing clouds.8 mph34%30.01 "HgN/A
1:20 PM77 °FPassing clouds.9 mph34%30.01 "HgN/A
12:50 PM79 °FPassing clouds.9 mph32%30.01 "HgN/A
12:20 PM77 °FPassing clouds.10 mph32%30.01 "HgN/A
Weather by CustomWeather, © 2016

See weather overviewHow to use our weather pages